This is the latest recevied weather packets stored in our database for station/object N5RPG. If no packets are shown the sender has not sent any weather packets the latest 10 day(s).
| Time | Temp. | Humidity | Pressure | Rain* | Wind** | Luminosity | Snow |
|---|---|---|---|---|---|---|---|
| 1778034317 | 25° C | 82% | 1008 hPa | 0 mm | - | 0 W/m² | - |
| 1778034015 | 25° C | 82% | 1008 hPa | 0 mm | - | 0 W/m² | - |
| 1778033712 | 25° C | 82% | 1008 hPa | 0 mm | - | 0 W/m² | - |
| 1778033409 | 25° C | 82% | 1007.9 hPa | 0 mm | - | 0 W/m² | - |
| 1778033107 | 25° C | 82% | 1007.9 hPa | 0 mm | - | 0 W/m² | - |
| 1778032804 | 25° C | 82% | 1007.6 hPa | 0 mm | - | 0 W/m² | - |
| 1778032501 | 25.56° C | 82% | 1007.4 hPa | 0 mm | - | 0 W/m² | - |
| 1778032198 | 25.56° C | 81% | 1007.5 hPa | 0 mm | - | 0 W/m² | - |
| 1778031895 | 25.56° C | 81% | 1007.5 hPa | 0 mm | - | 0 W/m² | - |
| 1778031591 | 25.56° C | 80% | 1007.2 hPa | 0 mm | - | 0 W/m² | - |
| 1778031289 | 25.56° C | 79% | 1007.3 hPa | 0 mm | - | 0 W/m² | - |
| 1778030985 | 26.11° C | 79% | 1007.3 hPa | 0 mm | - | 0 W/m² | - |
| 1778030682 | 26.11° C | 78% | 1007.3 hPa | 0 mm | - | 0 W/m² | - |
| 1778030379 | 26.11° C | 78% | 1007.4 hPa | 0 mm | - | 0 W/m² | - |
| 1778030076 | 26.11° C | 77% | 1007.4 hPa | 0 mm | - | 0 W/m² | - |
| 1778029773 | 26.67° C | 77% | 1007.3 hPa | 0 mm | - | 1 W/m² | - |
| 1778029472 | 26.67° C | 77% | 1007 hPa | 0 mm | - | 1 W/m² | - |
| 1778029167 | 26.67° C | 76% | 1006.8 hPa | 0 mm | - | 4 W/m² | - |
| 1778028866 | 26.67° C | 76% | 1006.7 hPa | 0 mm | - | 9 W/m² | - |
| 1778028560 | 26.67° C | 76% | 1006.7 hPa | 0 mm | - | 12 W/m² | - |
| 1778028259 | 27.22° C | 75% | 1006.7 hPa | 0 mm | - | 20 W/m² | - |
| 1778027954 | 27.22° C | 75% | 1006.6 hPa | 0 mm | - | 24 W/m² | - |
| 1778027651 | 27.22° C | 74% | 1006.4 hPa | 0 mm | - | 22 W/m² | - |
| 1778027348 | 27.22° C | 74% | 1006.6 hPa | 0 mm | - | 32 W/m² | - |
| 1778027044 | 27.78° C | 73% | 1006.4 hPa | 0 mm | - | 39 W/m² | - |
* Rain latest hour (hover to see other rain measurements)
** Current wind speed in m/s (hover to see current wind gust speed)